Location: Unspecified
(0.0000°N, 0.0000°E)
Time: 21:13:53
(UTC+01:00)

Transit 2A - Visible Passes

Search period start: 05 March 2015 00:00
Search period end: 15 March 2015 00:00
Orbit: 592 x 970 km, 66.7° (Epoch: 04 March)

Date Brightness Start Highest point End Pass type
(mag) Time Alt. Az. Time Alt. Az. Time Alt. Az.
05 Mar 8.7 05:40:04 10° NNE 05:43:54 19° ENE 05:47:45 10° ESE visible
06 Mar 9.1 05:08:41 10° NE 05:09:58 11° ENE 05:11:42 10° E visible
07 Mar 6.1 06:13:58 10° NNW 06:19:46 85° WSW 06:24:59 10° SSE visible
08 Mar 6.6 05:40:22 10° N 05:46:02 58° ENE 05:51:12 10° SSE visible
09 Mar 7.5 05:07:53 14° N 05:12:16 35° ENE 05:17:05 10° SE visible
10 Mar 8.2 04:37:29 21° NE 04:38:25 22° ENE 04:42:32 10° ESE visible
10 Mar 7.0 06:18:10 15° WNW 06:21:35 26° WSW 06:25:45 10° SSW visible
11 Mar 9.0 04:06:46 11° E 04:06:46 11° E 04:07:06 10° E visible
11 Mar 6.3 05:47:25 42° W 05:47:53 43° WSW 05:52:43 10° S visible
12 Mar 7.0 05:16:24 36° S 05:16:24 36° S 05:19:19 10° SSE visible
13 Mar 8.5 04:45:06 13° SSE 04:45:06 13° SSE 04:45:37 10° SSE visible
